Simultaneous Nadir Overpasses (SNOs) Predictions

Prediction of SNOs between AQUA and NPP Satellite Orbit:

Table of predicted SNOs for the next 14.0 days since TLE Epoch: 11/26/2022
Index Date (AQUA) Time (AQUA) Lat,Lon (AQUA) SZA (AQUA ) Date (NPP) Time (NPP) Lat,Lon (NPP) SZA (NPP ) Distance(km) Time Diff (sec)
1 11/26/2022 08:35:33 -78.76, 123.31 66.61 11/26/2022 08:34:23 -78.75, 123.20 66.54 2.69 70
2 11/26/2022 09:24:48 79.16, -66.64 112.88 11/26/2022 09:24:56 79.16, -66.68 112.89 0.89 8
3 11/29/2022 00:01:35 78.80, 72.07 113.84 11/29/2022 00:00:29 78.80, 71.98 113.91 2.06 66
4 11/29/2022 00:50:53 -79.15,-118.22 66.60 11/29/2022 00:51:05 -79.14,-118.36 66.58 3.12 12
5 12/01/2022 15:27:38 -78.86, 20.88 65.77 12/01/2022 15:26:36 -78.85, 20.79 65.71 2.09 62
6 12/01/2022 16:16:53 79.25,-169.08 113.73 12/01/2022 16:17:09 79.25,-169.06 113.72 0.40 16
7 12/04/2022 06:53:39 78.89, -30.39 114.60 12/04/2022 06:52:42 78.88, -30.48 114.66 2.23 57
8 12/04/2022 07:42:54 -79.36, 140.15 66.00 12/04/2022 07:43:14 -79.36, 140.28 66.04 2.68 20
9 12/06/2022 22:19:38 -79.03, -81.05 65.21 12/06/2022 22:18:45 -79.04, -80.95 65.19 2.34 53
10 12/06/2022 23:08:56 79.29, 88.26 114.45 12/06/2022 23:09:22 79.29, 88.21 114.44 0.99 26
11 12/09/2022 13:45:38 79.07,-132.34 115.07 12/09/2022 13:44:51 79.07,-132.27 115.10 1.30 47



Historial Predications of SNOs between AQUA and NPP
